QPF
0.11 0.10 0.09 0.13 0.15 0.19 0.23 0.22 0.17 0.14 0.13 0.12 0.10 0.09 0.07 0.05 0.06 0.07 0.08 0.09 0.08 0.07 0.05 0.04 0.04 0.04 0.02 0.02 0.02 0.02 0.02 0.02 0.02 0.02 0.02 0.02 0.01 0.01 0.01 0.01 0.02 0.02 0.02
0.08 0.08 0.09 0.10 0.09 0.10 0.14 0.15 0.14 0.13 0.11 0.11 0.08 0.06 0.04 0.05 0.05 0.06 0.08 0.07 0.05 0.04 0.03 0.03 0.03 0.03 0.03 0.03 0.03 0.03 0.03 0.03 0.02 0.02 0.02 0.02 0.01 0.01 0.01 0.01 0.01 0.01 0.01
0.08 0.07 0.08 0.06 0.07 0.08 0.08 0.07 0.09 0.09 0.08 0.08 0.07 0.06 0.06 0.07 0.07 0.06 0.05 0.05 0.05 0.05 0.04 0.05 0.03 0.03 0.03 0.03 0.03 0.03 0.04 0.03 0.03 0.04 0.02 0.01 0.01 0.01 0.01 0.01 0.01 0.01 0.02
0.06 0.06 0.06 0.06 0.06 0.06 0.05 0.06 0.07 0.09 0.08 0.08 0.08 0.07 0.07 0.07 0.07 0.06 0.05 0.04 0.04 0.05 0.06 0.07 0.06 0.04 0.04 0.03 0.02 0.03 0.04 0.04 0.03 0.04 0.03 0.02 0.01 0.01 0.02 0.01 0.01 0.01 0.02
0.06 0.06 0.07 0.07 0.06 0.06 0.06 0.05 0.08 0.11 0.11 0.12 0.10 0.10 0.08 0.07 0.07 0.06 0.04 0.04 0.03 0.04 0.05 0.06 0.07 0.06 0.04 0.04 0.04 0.04 0.05 0.04 0.03 0.04 0.03 0.03 0.02 0.02 0.02 0.02 0.02 0.02 0.02
0.06 0.06 0.07 0.06 0.06 0.06 0.07 0.07 0.10 0.11 0.13 0.14 0.11 0.12 0.10 0.08 0.07 0.06 0.04 0.04 0.04 0.03 0.03 0.04 0.07 0.07 0.04 0.02 0.04 0.05 0.06 0.07 0.06 0.05 0.05 0.04 0.03 0.02 0.02 0.02 0.02 0.03 0.03
0.08 0.07 0.06 0.08 0.06 0.07 0.08 0.10 0.10 0.11 0.11 0.12 0.13 0.13 0.10 0.08 0.07 0.06 0.05 0.04 0.04 0.04 0.04 0.04 0.06 0.08 0.06 0.04 0.03 0.04 0.06 0.06 0.06 0.06 0.06 0.05 0.04 0.03 0.02 0.02 0.02 0.02 0.02
0.07 0.06 0.07 0.07 0.08 0.07 0.08 0.09 0.11 0.11 0.10 0.12 0.12 0.13 0.12 0.11 0.08 0.05 0.04 0.04 0.05 0.04 0.04 0.04 0.06 0.10 0.08 0.08 0.04 0.04 0.05 0.06 0.07 0.07 0.07 0.05 0.04 0.04 0.03 0.03 0.02 0.02 0.02
0.04 0.05 0.06 0.06 0.07 0.07 0.07 0.07 0.09 0.09 0.10 0.14 0.14 0.13 0.15 0.15 0.13 0.08 0.06 0.05 0.05 0.05 0.05 0.05 0.06 0.06 0.08 0.10 0.09 0.05 0.07 0.06 0.06 0.06 0.08 0.07 0.04 0.04 0.04 0.04 0.04 0.03 0.03
0.03 0.04 0.04 0.06 0.06 0.07 0.08 0.07 0.09 0.11 0.12 0.12 0.12 0.12 0.12 0.13 0.14 0.12 0.09 0.06 0.05 0.06 0.05 0.04 0.04 0.04 0.06 0.07 0.06 0.04 0.04 0.05 0.05 0.05 0.06 0.06 0.05 0.05 0.05 0.04 0.04 0.04 0.04
0.04 0.03 0.04 0.06 0.06 0.07 0.08 0.07 0.09 0.09 0.10 0.11 0.12 0.13 0.10 0.10 0.11 0.14 0.14 0.10 0.07 0.05 0.03 0.04 0.05 0.06 0.07 0.07 0.05 0.04 0.03 0.03 0.04 0.05 0.04 0.04 0.04 0.06 0.06 0.05 0.05 0.07 0.08
0.06 0.06 0.06 0.08 0.08 0.09 0.09 0.09 0.09 0.10 0.11 0.12 0.13 0.11 0.11 0.10 0.09 0.12 0.13 0.11 0.09 0.05 0.04 0.05 0.06 0.06 0.07 0.07 0.07 0.07 0.03 0.02 0.03 0.04 0.05 0.03 0.03 0.04 0.04 0.06 0.07 0.07 0.08
0.05 0.05 0.07 0.09 0.08 0.08 0.08 0.10 0.11 0.12 0.13 0.13 0.13 0.11 0.10 0.08 0.07 0.08 0.09 0.09 0.08 0.04 0.05 0.04 0.03 0.04 0.05 0.05 0.05 0.04 0.02 0.02 0.02 0.02 0.02 0.02 0.02 0.02 0.03 0.04 0.06 0.07 0.08
0.02 0.03 0.03 0.03 0.04 0.05 0.06 0.10 0.11 0.12 0.10 0.08 0.06 0.08 0.07 0.05 0.05 0.06 0.08 0.10 0.10 0.08 0.07 0.05 0.04 0.04 0.05 0.05 0.05 0.04 0.03 0.03 0.03 0.02 0.01 0.01 0.01 0.01 0.01 0.02 0.03 0.04 0.05
0.02 0.02 0.02 0.02 0.03 0.04 0.06 0.08 0.06 0.06 0.06 0.05 0.05 0.06 0.05 0.05 0.04 0.05 0.06 0.09 0.12 0.11 0.09 0.08 0.08 0.07 0.05 0.05 0.05 0.04 0.03 0.05 0.05 0.04 0.02 0.02 0.01 0.01 0.01 0.01 0.01 0.01 0.02
0.01 0.02 0.02 0.02 0.03 0.04 0.04 0.04 0.03 0.04 0.04 0.03 0.04 0.06 0.06 0.05 0.05 0.05 0.06 0.07 0.09 0.10 0.08 0.06 0.08 0.07 0.05 0.05 0.06 0.04 0.05 0.05 0.03 0.02 0.02 0.02 0.01 0.01 0.01 0.01 0.02 0.02 0.02
0.01 0.02 0.02 0.02 0.02 0.03 0.04 0.04 0.03 0.03 0.03 0.03 0.03 0.03 0.04 0.05 0.07 0.06 0.06 0.06 0.06 0.07 0.05 0.03 0.04 0.03 0.04 0.06 0.07 0.07 0.07 0.06 0.04 0.03 0.02 0.01 0.01 0.01 0.01 0.01 0.01 0.01 0.02
0.01 0.01 0.02 0.02 0.02 0.02 0.02 0.03 0.02 0.03 0.04 0.03 0.03 0.04 0.04 0.05 0.08 0.07 0.08 0.06 0.05 0.05 0.04 0.05 0.04 0.05 0.06 0.06 0.07 0.08 0.08 0.07 0.05 0.05 0.03 0.02 0.01 0.01 0.01 0.01 0.02 0.02 0.02
0.02 0.03 0.03 0.03 0.02 0.02 0.02 0.03 0.04 0.03 0.03 0.04 0.04 0.05 0.05 0.07 0.07 0.09 0.09 0.07 0.06 0.05 0.05 0.05 0.04 0.04 0.04 0.05 0.07 0.06 0.06 0.08 0.06 0.06 0.05 0.04 0.02 0.01 0.01 0.01 0.01 0.02 0.02
0.02 0.02 0.02 0.02 0.02 0.02 0.03 0.03 0.03 0.04 0.04 0.04 0.04 0.04 0.04 0.05 0.07 0.08 0.07 0.08 0.08 0.08 0.09 0.07 0.05 0.04 0.04 0.05 0.06 0.06 0.07 0.07 0.07 0.05 0.07 0.05 0.04 0.03 0.02 0.01 0.01 0.01 0.01
0.01 0.02 0.02 0.02 0.02 0.02 0.02 0.03 0.02 0.03 0.04 0.03 0.03 0.03 0.03 0.04 0.05 0.07 0.06 0.07 0.08 0.09 0.09 0.08 0.07 0.08 0.07 0.06 0.07 0.09 0.08 0.07 0.07 0.04 0.05 0.06 0.05 0.04 0.03 0.03 0.02 0.02 0.01
0.02 0.02 0.02 0.02 0.02 0.01 0.02 0.03 0.03 0.04 0.04 0.05 0.05 0.05 0.04 0.06 0.05 0.06 0.06 0.07 0.08 0.07 0.07 0.08 0.07 0.07 0.06 0.09 0.10 0.10 0.09 0.08 0.06 0.04 0.05 0.05 0.05 0.05 0.04 0.03 0.04 0.03 0.02
0.04 0.03 0.03 0.03 0.02 0.03 0.05 0.03 0.02 0.03 0.04 0.06 0.06 0.06 0.04 0.05 0.05 0.05 0.05 0.05 0.04 0.03 0.04 0.06 0.06 0.05 0.07 0.10 0.11 0.08 0.08 0.07 0.05 0.05 0.07 0.05 0.04 0.04 0.03 0.03 0.03 0.02 0.02
0.08 0.05 0.04 0.05 0.05 0.05 0.06 0.05 0.04 0.03 0.04 0.06 0.06 0.05 0.05 0.06 0.04 0.04 0.04 0.05 0.03 0.03 0.03 0.03 0.04 0.05 0.06 0.08 0.09 0.07 0.06 0.06 0.07 0.07 0.08 0.06 0.04 0.04 0.03 0.02 0.02 0.02 0.01
0.09 0.07 0.06 0.06 0.05 0.06 0.07 0.07 0.04 0.04 0.04 0.04 0.05 0.05 0.05 0.04 0.04 0.04 0.04 0.05 0.04 0.04 0.03 0.03 0.03 0.04 0.04 0.05 0.05 0.05 0.05 0.05 0.04 0.05 0.07 0.08 0.06 0.04 0.03 0.02 0.01 0.03 0.02
0.10 0.09 0.07 0.07 0.07 0.07 0.08 0.07 0.06 0.05 0.05 0.05 0.05 0.05 0.04 0.04 0.05 0.04 0.04 0.05 0.05 0.05 0.05 0.04 0.04 0.04 0.03 0.04 0.03 0.04 0.05 0.06 0.05 0.06 0.05 0.06 0.06 0.06 0.04 0.02 0.02 0.03 0.03
MSLP
1015.24 1015.36 1015.41 1015.43 1015.45 1015.51 1015.60 1015.74 1015.88 1016.01 1016.10 1016.13 1016.13 1016.12 1016.17 1016.31 1016.58 1017.00 1017.54 1018.16 1018.79 1019.37 1019.84 1020.18 1020.40 1020.51 1020.56 1020.60 1020.67 1020.78 1020.95 1021.15 1021.36 1021.57 1021.76 1021.92 1022.05 1022.17 1022.27 1022.35 1022.42 1022.48 1022.50
1015.18 1015.26 1015.28 1015.28 1015.30 1015.36 1015.48 1015.65 1015.85 1016.04 1016.20 1016.30 1016.34 1016.36 1016.39 1016.47 1016.66 1016.96 1017.38 1017.89 1018.43 1018.96 1019.43 1019.81 1020.09 1020.28 1020.41 1020.51 1020.60 1020.71 1020.84 1020.99 1021.16 1021.33 1021.49 1021.64 1021.78 1021.90 1022.02 1022.12 1022.20 1022.25 1022.27
1015.08 1015.14 1015.15 1015.16 1015.19 1015.28 1015.43 1015.64 1015.88 1016.13 1016.35 1016.50 1016.58 1016.61 1016.61 1016.63 1016.71 1016.89 1017.16 1017.52 1017.95 1018.40 1018.85 1019.25 1019.59 1019.85 1020.06 1020.23 1020.37 1020.50 1020.62 1020.75 1020.88 1021.00 1021.13 1021.25 1021.37 1021.49 1021.61 1021.72 1021.81 1021.87 1021.91
1014.95 1015.01 1015.05 1015.08 1015.15 1015.26 1015.45 1015.69 1015.96 1016.25 1016.50 1016.69 1016.79 1016.83 1016.81 1016.77 1016.75 1016.79 1016.91 1017.12 1017.41 1017.76 1018.14 1018.53 1018.90 1019.23 1019.52 1019.76 1019.97 1020.13 1020.27 1020.39 1020.49 1020.59 1020.67 1020.76 1020.86 1020.96 1021.07 1021.18 1021.27 1021.35 1021.41
1014.78 1014.87 1014.95 1015.03 1015.14 1015.29 1015.50 1015.76 1016.06 1016.35 1016.62 1016.83 1016.96 1017.00 1016.97 1016.88 1016.78 1016.70 1016.68 1016.73 1016.88 1017.10 1017.39 1017.74 1018.10 1018.47 1018.81 1019.12 1019.39 1019.62 1019.79 1019.93 1020.03 1020.10 1020.16 1020.22 1020.28 1020.36 1020.44 1020.54 1020.63 1020.72 1020.80
1014.56 1014.69 1014.82 1014.96 1015.13 1015.33 1015.56 1015.83 1016.12 1016.42 1016.70 1016.92 1017.06 1017.12 1017.09 1016.99 1016.84 1016.68 1016.54 1016.45 1016.45 1016.53 1016.70 1016.96 1017.28 1017.63 1018.00 1018.37 1018.70 1018.98 1019.21 1019.39 1019.51 1019.58 1019.63 1019.67 1019.70 1019.74 1019.79 1019.87 1019.95 1020.04 1020.14
1014.27 1014.44 1014.63 1014.84 1015.07 1015.31 1015.57 1015.85 1016.14 1016.43 1016.70 1016.93 1017.10 1017.20 1017.20 1017.11 1016.95 1016.75 1016.53 1016.33 1016.19 1016.12 1016.16 1016.29 1016.52 1016.83 1017.18 1017.57 1017.94 1018.28 1018.58 1018.81 1018.97 1019.08 1019.14 1019.16 1019.17 1019.18 1019.20 1019.24 1019.31 1019.39 1019.49
1013.89 1014.11 1014.36 1014.64 1014.93 1015.22 1015.51 1015.80 1016.09 1016.37 1016.64 1016.89 1017.09 1017.23 1017.28 1017.25 1017.12 1016.92 1016.66 1016.38 1016.12 1015.92 1015.81 1015.80 1015.91 1016.13 1016.43 1016.80 1017.19 1017.58 1017.93 1018.23 1018.46 1018.61 1018.71 1018.74 1018.75 1018.74 1018.72 1018.73 1018.76 1018.83 1018.93
1013.43 1013.68 1013.99 1014.33 1014.69 1015.04 1015.36 1015.67 1015.96 1016.24 1016.51 1016.77 1017.01 1017.21 1017.34 1017.38 1017.31 1017.14 1016.89 1016.57 1016.23 1015.92 1015.66 1015.51 1015.48 1015.59 1015.81 1016.13 1016.51 1016.92 1017.33 1017.69 1017.99 1018.21 1018.35 1018.43 1018.44 1018.42 1018.39 1018.37 1018.38 1018.42 1018.52
1012.89 1013.16 1013.52 1013.93 1014.36 1014.76 1015.13 1015.46 1015.76 1016.04 1016.31 1016.59 1016.87 1017.12 1017.32 1017.44 1017.46 1017.36 1017.14 1016.82 1016.44 1016.05 1015.69 1015.41 1015.24 1015.22 1015.34 1015.59 1015.93 1016.35 1016.78 1017.20 1017.57 1017.86 1018.07 1018.19 1018.24 1018.24 1018.20 1018.17 1018.15 1018.18 1018.26
1012.30 1012.60 1013.00 1013.46 1013.94 1014.40 1014.82 1015.18 1015.49 1015.77 1016.05 1016.33 1016.63 1016.92 1017.18 1017.38 1017.49 1017.47 1017.31 1017.03 1016.66 1016.23 1015.80 1015.42 1015.14 1015.00 1015.02 1015.18 1015.47 1015.85 1016.30 1016.75 1017.17 1017.53 1017.81 1018.00 1018.10 1018.13 1018.11 1018.08 1018.07 1018.08 1018.16
1011.69 1012.00 1012.44 1012.94 1013.48 1013.98 1014.44 1014.82 1015.15 1015.43 1015.70 1015.98 1016.28 1016.60 1016.90 1017.16 1017.34 1017.41 1017.33 1017.12 1016.78 1016.36 1015.91 1015.48 1015.13 1014.90 1014.82 1014.89 1015.11 1015.44 1015.87 1016.33 1016.79 1017.20 1017.54 1017.79 1017.96 1018.04 1018.06 1018.06 1018.05 1018.08 1018.15
1011.08 1011.41 1011.86 1012.40 1012.96 1013.51 1014.00 1014.41 1014.74 1015.02 1015.28 1015.55 1015.83 1016.14 1016.46 1016.76 1017.00 1017.14 1017.15 1017.02 1016.76 1016.40 1015.98 1015.54 1015.16 1014.86 1014.70 1014.69 1014.83 1015.10 1015.48 1015.92 1016.38 1016.83 1017.22 1017.53 1017.76 1017.91 1017.99 1018.03 1018.05 1018.10 1018.18
1010.47 1010.81 1011.28 1011.83 1012.42 1012.99 1013.50 1013.93 1014.27 1014.55 1014.79 1015.03 1015.29 1015.59 1015.90 1016.22 1016.50 1016.70 1016.79 1016.76 1016.59 1016.32 1015.96 1015.56 1015.18 1014.87 1014.65 1014.57 1014.62 1014.82 1015.13 1015.52 1015.96 1016.41 1016.83 1017.19 1017.47 1017.69 1017.83 1017.93 1018.00 1018.08 1018.18
1009.87 1010.22 1010.68 1011.24 1011.83 1012.41 1012.94 1013.38 1013.73 1014.01 1014.24 1014.47 1014.70 1014.97 1015.26 1015.58 1015.88 1016.13 1016.30 1016.36 1016.30 1016.13 1015.86 1015.54 1015.20 1014.88 1014.64 1014.50 1014.48 1014.58 1014.81 1015.13 1015.52 1015.95 1016.37 1016.75 1017.09 1017.36 1017.56 1017.72 1017.84 1017.96 1018.10
1009.25 1009.60 1010.06 1010.61 1011.19 1011.77 1012.30 1012.76 1013.13 1013.42 1013.65 1013.87 1014.09 1014.34 1014.62 1014.92 1015.23 1015.51 1015.74 1015.88 1015.92 1015.86 1015.70 1015.46 1015.18 1014.90 1014.65 1014.47 1014.38 1014.40 1014.53 1014.77 1015.09 1015.47 1015.86 1016.25 1016.61 1016.92 1017.18 1017.39 1017.56 1017.72 1017.89
1008.59 1008.95 1009.40 1009.93 1010.50 1011.06 1011.60 1012.07 1012.46 1012.77 1013.03 1013.26 1013.48 1013.73 1014.00 1014.30 1014.61 1014.91 1015.18 1015.39 1015.51 1015.54 1015.48 1015.34 1015.13 1014.89 1014.65 1014.45 1014.31 1014.26 1014.30 1014.45 1014.69 1015.00 1015.36 1015.73 1016.08 1016.41 1016.70 1016.94 1017.16 1017.36 1017.56
1007.90 1008.26 1008.70 1009.20 1009.74 1010.29 1010.82 1011.30 1011.72 1012.07 1012.37 1012.64 1012.89 1013.15 1013.42 1013.72 1014.03 1014.34 1014.63 1014.88 1015.07 1015.17 1015.20 1015.14 1015.00 1014.82 1014.61 1014.40 1014.24 1014.13 1014.11 1014.18 1014.35 1014.59 1014.89 1015.21 1015.55 1015.87 1016.17 1016.44 1016.68 1016.90 1017.13
1007.19 1007.55 1007.97 1008.44 1008.94 1009.47 1009.99 1010.47 1010.92 1011.32 1011.67 1011.99 1012.29 1012.58 1012.87 1013.17 1013.47 1013.78 1014.08 1014.34 1014.56 1014.72 1014.81 1014.82 1014.76 1014.64 1014.48 1014.30 1014.13 1014.01 1013.95 1013.96 1014.06 1014.24 1014.48 1014.76 1015.06 1015.36 1015.64 1015.91 1016.16 1016.40 1016.65
1006.50 1006.86 1007.25 1007.68 1008.15 1008.64 1009.13 1009.62 1010.09 1010.53 1010.93 1011.30 1011.65 1011.97 1012.28 1012.58 1012.88 1013.18 1013.46 1013.72 1013.96 1014.14 1014.28 1014.35 1014.36 1014.31 1014.21 1014.09 1013.96 1013.85 1013.79 1013.78 1013.84 1013.97 1014.16 1014.39 1014.64 1014.90 1015.16 1015.41 1015.65 1015.90 1016.16
1005.89 1006.24 1006.60 1006.99 1007.40 1007.84 1008.30 1008.77 1009.24 1009.70 1010.14 1010.55 1010.94 1011.29 1011.61 1011.92 1012.20 1012.47 1012.73 1012.97 1013.20 1013.40 1013.57 1013.70 1013.78 1013.81 1013.80 1013.76 1013.69 1013.64 1013.60 1013.60 1013.66 1013.76 1013.91 1014.10 1014.31 1014.53 1014.75 1014.98 1015.20 1015.44 1015.71
1005.41 1005.75 1006.08 1006.42 1006.77 1007.15 1007.55 1007.98 1008.43 1008.88 1009.33 1009.76 1010.16 1010.52 1010.85 1011.14 1011.40 1011.64 1011.87 1012.08 1012.30 1012.51 1012.71 1012.89 1013.04 1013.16 1013.24 1013.30 1013.33 1013.36 1013.38 1013.43 1013.50 1013.60 1013.73 1013.89 1014.06 1014.25 1014.43 1014.63 1014.83 1015.06 1015.33
1005.10 1005.43 1005.72 1006.00 1006.29 1006.59 1006.93 1007.29 1007.69 1008.10 1008.53 1008.95 1009.34 1009.69 1010.01 1010.27 1010.51 1010.71 1010.90 1011.09 1011.29 1011.51 1011.73 1011.96 1012.19 1012.40 1012.59 1012.76 1012.90 1013.02 1013.13 1013.23 1013.34 1013.46 1013.59 1013.73 1013.88 1014.03 1014.19 1014.35 1014.54 1014.76 1015.02
1004.97 1005.27 1005.53 1005.76 1005.98 1006.20 1006.46 1006.74 1007.07 1007.43 1007.80 1008.18 1008.54 1008.87 1009.15 1009.39 1009.59 1009.76 1009.93 1010.10 1010.29 1010.51 1010.77 1011.05 1011.34 1011.64 1011.93 1012.20 1012.44 1012.66 1012.85 1013.02 1013.17 1013.32 1013.46 1013.59 1013.72 1013.85 1013.98 1014.13 1014.30 1014.51 1014.75
1004.96 1005.25 1005.47 1005.65 1005.81 1005.96 1006.14 1006.34 1006.59 1006.88 1007.19 1007.52 1007.83 1008.12 1008.37 1008.58 1008.76 1008.91 1009.06 1009.23 1009.42 1009.65 1009.93 1010.25 1010.60 1010.97 1011.34 1011.69 1012.02 1012.31 1012.57 1012.79 1012.98 1013.15 1013.29 1013.42 1013.54 1013.66 1013.78 1013.91 1014.07 1014.26 1014.50
1005.00 1005.27 1005.47 1005.62 1005.72 1005.82 1005.93 1006.07 1006.25 1006.47 1006.73 1007.00 1007.27 1007.52 1007.75 1007.95 1008.11 1008.26 1008.41 1008.58 1008.78 1009.03 1009.33 1009.68 1010.07 1010.48 1010.90 1011.30 1011.67 1012.01 1012.30 1012.55 1012.76 1012.93 1013.07 1013.20 1013.31 1013.42 1013.52 1013.65 1013.80 1013.98 1014.20
Thickness
5776 5775 5774 5774 5773 5773 5773 5772 5771 5771 5771 5771 5772 5771 5770 5769 5768 5765 5762 5759 5758 5756 5754 5753 5751 5750 5748 5747 5745 5743 5741 5740 5738 5737 5735 5734 5733 5731 5730 5729 5727 5725 5724
5777 5776 5775 5774 5775 5774 5773 5772 5772 5771 5771 5771 5771 5771 5770 5769 5767 5765 5762 5759 5757 5756 5755 5753 5752 5751 5749 5748 5746 5744 5742 5741 5739 5737 5736 5734 5733 5732 5731 5729 5728 5726 5725
5777 5777 5776 5775 5775 5774 5773 5772 5771 5770 5770 5770 5769 5769 5769 5768 5767 5765 5762 5760 5758 5756 5755 5754 5753 5751 5750 5749 5747 5745 5743 5742 5740 5738 5736 5735 5734 5732 5731 5730 5728 5727 5726
5777 5777 5776 5775 5775 5774 5773 5771 5770 5769 5768 5768 5767 5767 5767 5767 5766 5765 5764 5762 5760 5759 5756 5754 5753 5752 5750 5749 5748 5746 5744 5743 5741 5739 5737 5736 5734 5733 5732 5730 5729 5728 5726
5778 5777 5776 5775 5774 5773 5772 5772 5770 5768 5765 5765 5764 5765 5765 5765 5765 5765 5765 5764 5763 5761 5759 5755 5753 5752 5751 5750 5749 5747 5745 5744 5742 5740 5738 5736 5735 5733 5732 5730 5729 5728 5727
5778 5777 5776 5775 5774 5772 5771 5770 5767 5766 5765 5764 5764 5763 5763 5764 5765 5765 5764 5765 5764 5762 5760 5758 5755 5753 5751 5751 5749 5748 5746 5744 5742 5741 5739 5737 5735 5734 5732 5731 5729 5728 5727
5778 5777 5776 5774 5773 5771 5770 5769 5766 5763 5762 5763 5759 5756 5759 5763 5763 5764 5764 5764 5763 5762 5761 5759 5757 5755 5753 5751 5749 5748 5746 5744 5743 5741 5739 5738 5736 5734 5733 5731 5730 5728 5726
5779 5778 5776 5774 5773 5771 5769 5767 5765 5762 5761 5763 5757 5751 5748 5751 5758 5764 5763 5762 5762 5761 5760 5760 5758 5756 5755 5752 5750 5748 5746 5744 5743 5741 5740 5738 5737 5735 5733 5731 5730 5728 5726
5780 5778 5777 5775 5773 5771 5768 5767 5765 5762 5758 5760 5761 5754 5745 5742 5748 5756 5760 5761 5761 5760 5760 5760 5759 5757 5755 5753 5751 5749 5747 5745 5743 5742 5740 5738 5737 5735 5733 5731 5730 5728 5726
5781 5779 5777 5775 5773 5772 5769 5768 5767 5764 5761 5757 5759 5760 5757 5754 5745 5744 5752 5758 5759 5758 5758 5760 5759 5758 5755 5754 5752 5750 5747 5745 5743 5741 5739 5737 5736 5735 5733 5731 5730 5728 5726
5783 5781 5778 5776 5773 5771 5770 5768 5767 5765 5762 5759 5758 5757 5756 5756 5754 5745 5742 5748 5752 5755 5757 5758 5758 5757 5756 5754 5751 5749 5747 5745 5742 5740 5738 5736 5735 5733 5732 5730 5729 5727 5725
5782 5781 5779 5776 5774 5771 5770 5768 5767 5765 5762 5760 5760 5758 5755 5753 5751 5748 5744 5744 5745 5751 5755 5756 5756 5756 5754 5752 5751 5748 5745 5744 5741 5739 5737 5735 5733 5731 5730 5728 5727 5726 5724
5782 5781 5780 5777 5774 5771 5770 5768 5766 5764 5763 5759 5758 5757 5757 5756 5756 5752 5747 5744 5744 5747 5750 5753 5754 5754 5753 5751 5749 5746 5744 5742 5739 5737 5735 5733 5731 5729 5727 5726 5725 5723 5722
5785 5783 5780 5777 5774 5772 5770 5768 5765 5764 5762 5760 5759 5757 5756 5756 5756 5753 5748 5743 5739 5740 5744 5747 5751 5751 5751 5749 5746 5744 5741 5739 5736 5734 5732 5730 5728 5726 5725 5723 5722 5720 5719
5786 5784 5780 5776 5773 5771 5769 5767 5764 5763 5761 5759 5758 5756 5754 5754 5754 5754 5751 5746 5738 5732 5733 5741 5743 5748 5748 5746 5743 5741 5739 5736 5733 5731 5729 5727 5725 5723 5721 5719 5718 5716 5714
5785 5782 5779 5776 5773 5770 5767 5765 5763 5761 5759 5758 5756 5754 5753 5753 5752 5751 5750 5747 5743 5736 5732 5737 5739 5743 5743 5742 5740 5738 5735 5733 5731 5728 5726 5723 5721 5719 5717 5715 5714 5712 5711
5783 5780 5777 5774 5771 5768 5766 5763 5760 5759 5756 5754 5753 5751 5749 5749 5747 5746 5745 5743 5740 5737 5731 5734 5737 5738 5738 5737 5734 5733 5732 5730 5727 5725 5722 5720 5718 5715 5713 5711 5710 5708 5706
5780 5777 5775 5772 5770 5767 5764 5761 5758 5756 5753 5751 5749 5747 5746 5745 5742 5741 5739 5738 5736 5734 5730 5727 5730 5731 5731 5732 5731 5729 5728 5726 5724 5721 5719 5716 5714 5711 5709 5707 5705 5703 5702
5776 5775 5772 5769 5766 5764 5761 5758 5756 5754 5752 5749 5747 5744 5742 5740 5737 5736 5734 5732 5732 5731 5728 5725 5724 5726 5726 5726 5724 5723 5722 5721 5719 5717 5715 5712 5709 5707 5705 5702 5700 5699 5697
5773 5771 5769 5767 5764 5761 5758 5755 5753 5750 5748 5746 5744 5741 5739 5736 5733 5732 5730 5728 5726 5723 5722 5720 5719 5719 5718 5719 5717 5714 5712 5712 5712 5713 5710 5707 5705 5701 5699 5697 5695 5693 5692
5772 5769 5766 5763 5760 5757 5755 5751 5748 5746 5743 5741 5740 5738 5735 5732 5729 5727 5725 5722 5720 5717 5715 5713 5711 5710 5709 5708 5707 5707 5704 5704 5705 5706 5703 5701 5699 5696 5693 5691 5689 5687 5686
5768 5765 5762 5759 5756 5754 5750 5747 5745 5742 5739 5737 5734 5732 5730 5727 5724 5721 5719 5716 5714 5711 5708 5706 5705 5702 5700 5700 5700 5699 5697 5694 5694 5698 5696 5694 5694 5691 5689 5687 5685 5683 5681
5761 5758 5756 5753 5750 5747 5744 5742 5740 5737 5735 5732 5729 5726 5724 5722 5718 5715 5713 5711 5709 5707 5704 5701 5698 5696 5695 5694 5692 5690 5689 5688 5687 5690 5689 5686 5688 5685 5685 5683 5681 5679 5676
5754 5751 5749 5747 5744 5741 5737 5734 5733 5731 5729 5727 5724 5721 5716 5713 5711 5708 5706 5703 5701 5699 5698 5696 5694 5692 5690 5688 5686 5684 5683 5683 5684 5684 5683 5678 5680 5679 5679 5677 5675 5674 5672
5747 5745 5743 5740 5737 5733 5729 5727 5724 5723 5721 5720 5717 5714 5710 5706 5702 5700 5698 5696 5693 5691 5690 5689 5686 5684 5682 5680 5678 5676 5675 5673 5672 5674 5675 5671 5671 5671 5671 5670 5669 5667 5665
5739 5738 5735 5732 5730 5726 5721 5719 5717 5715 5712 5710 5708 5705 5701 5698 5694 5691 5689 5687 5684 5683 5682 5680 5677 5676 5674 5673 5671 5669 5667 5664 5663 5663 5666 5664 5662 5661 5659 5662 5662 5659 5658